Regional Weather Roundup
Issued by NWS

Home | Current Version | Previous Version | Graphics & Text | Print | Product List | Glossary On
Versions: 1 2 3 4 5 6 7 8 9 10 11 12 13 14 15 16 17 18 19 20 21 22 23 24 25 26 27 28 29 30 31 32 33 34 35 36 37 38 39 40 41 42 43 44 45 46 47 48 49 50
000
ASUS43 KLSX 170959
RWRMO

WEATHER SUMMARY FOR MISSOURI
NATIONAL WEATHER SERVICE SPRINGFIELD MO
500 AM CDT THU APR 17 2014

NOTE: "FAIR" INDICATES FEW OR NO CLOUDS BELOW 12,000 FEET WITH NO
       SIGNIFICANT WEATHER AND/OR OBSTRUCTIONS TO VISIBILITY.
       CURRENT SKY AND/OR WEATHER CONDITIONS ARE NOT AVAILABLE FOR
       CHILLICOTHE AND FARMINGTON.

MOZ001>031-035>038-043-044-053-054-171100-
...NORTHERN AND WESTERN MISSOURI...

CITY           SKY/WX    TMP DP  RH WIND       PRES   REMARKS
KANSAS CTY INT CLOUDY    39  30  70 NW10G18   30.17R
KANSAS C DTWN  CLOUDY    41  31  67 NW7       30.18R
LEE`S SUMMIT   MOCLDY    40  31  70 N10       30.16R
ST JOSEPH      CLOUDY    38  29  70 N13       30.21R WCI  30
CHILLICOTHE      N/A     41  33  73 VRB7      30.16R
KIRKSVILLE     CLOUDY    40  34  79 W8        30.12R

$$
MOZ066>068-077>081-088>096-101>105-171100-
...SOUTHWEST MISSOURI...

CITY           SKY/WX    TMP DP  RH WIND       PRES   REMARKS
SPRINGFIELD    PTCLDY    43  30  60 SE9       30.14R
JOPLIN         MOCLDY    44  32  62 CALM      30.15R

$$
MOZ032>034-039>042-045>050-055>058-069>072-171100-
...CENTRAL MISSOURI...

CITY           SKY/WX    TMP DP  RH WIND       PRES   REMARKS
COLUMBIA       MOCLDY    45  30  55 S13       30.12R
JEFFERSON CITY MOCLDY    47  30  51 CALM      30.15R
ROLLA          PTCLDY    43  31  62 S13       30.13S
SEDALIA        PTCLDY    42  35  76 NW7       30.15R
OSAGE BEACH    PTCLDY    43  28  56 S6        30.15S

$$
MOZ051-052-059>065-171100-
...EAST CENTRAL MISSOURI...

CITY           SKY/WX    TMP DP  RH WIND       PRES   REMARKS
ST LOUIS INTL  PTCLDY    47  29  49 S5        30.16R
SPIRIT OF STL  CLEAR     40  29  64 CALM      30.15S
ST CHARLES     CLEAR     39  31  72 E5        30.15S

$$
MOZ072>076-082>087-097>100-106>115-171100-
...SOUTH CENTRAL AND SOUTHEAST MISSOURI...

CITY           SKY/WX    TMP DP  RH WIND       PRES   REMARKS
CAPE GIRARDEAU CLEAR     36  33  89 E5        30.21R
FARMINGTON     CLEAR     43  28  56 CALM      30.19S
POPLAR BLUFF   CLEAR     37  32  82 CALM      30.19R
WEST PLAINS    CLEAR     41  30  65 S5        30.17R

$$



USA.gov is the U.S. government's official web portal to all federal, state and local government web resources and services.